Location: Berkeley
(37.8716°N, 122.2727°W)
Time: 09:49:53
(UTC-07:00)

Tiangong 2 - Visible Passes

Search period start: 15 October 2018 00:00
Search period end: 25 October 2018 00:00
Orbit: 383 x 393 km, 42.8° (Epoch: 15 October)

Date Brightness Start Highest point End Pass type
(mag) Time Alt. Az. Time Alt. Az. Time Alt. Az.
15 Oct 1.8 05:54:58 35° NNW 05:55:52 47° NNE 05:58:59 10° E visible
16 Oct 4.1 04:59:33 17° ENE 04:59:33 17° ENE 05:00:28 10° E visible
16 Oct 1.1 06:31:51 15° WNW 06:34:25 67° SSW 06:37:36 10° ESE visible
17 Oct 1.5 05:36:30 62° ENE 05:36:30 62° ENE 05:39:18 10° ESE visible
18 Oct 1.9 06:13:31 27° WSW 06:14:30 34° SSW 06:17:26 10° SE visible
19 Oct 3.6 05:18:18 19° SE 05:18:18 19° SE 05:19:23 10° SE visible
20 Oct 3.3 05:55:30 16° S 05:55:30 16° S 05:56:44 10° S visible
